Location: Cruquius
(52.3348°N, 4.6319°E)
Time: 04:41:24
(UTC+00:00)

OBJECT-B - Pass Details

Date: 12 May 2021
Orbit: 414 x 423 km, 97.0° (Epoch: 05 June)

Event Time Altitude Azimuth Distance (km) Brightness Sun altitude
Rises 20:32:06 0° 213° (SSW) 2,377 4.4 -8.7°
Reaches altitude 10° 20:35:03 10° 244° (WSW) 1,519 3.8 -9.0°
Maximum altitude 20:36:33 13° 271° (W) 1,372 4.0 -9.1°
Drops below altitude 10° 20:38:04 10° 299° (WNW) 1,527 4.9 -9.3°
Sets 20:41:02 0° 330° (NNW) 2,400 6.5 -9.6°
